Weather History for KMRY - May, 2013

Change the Weather History Date:

Thursday, May 30, 2013

  Actual Average Record
Temperature  
Mean Temperature 57 °F 58 °F  
Max Temperature 63 °F 65 °F 92 °F (2001)
Min Temperature 51 °F 51 °F 46 °F (1998)
Degree Days  
Heating Degree Days 8    
Month to date heating degree days 197  
Since 1 July heating degree days 3140  
Cooling Degree Days 0    
Month to date cooling degree days 7  
Year to date cooling degree days 7  
Growing Degree Days 6 (Base 50)    
Moisture  
Dew Point 47 °F    
Average Humidity 73    
Maximum Humidity 89    
Minimum Humidity 57    
Precipitation  
Precipitation 0.00 in - 0.00 in (2015)
Month to date precipitation 0.02  
Year to date precipitation 3.11  
Since 1 July precipitation 11.35  
Sea Level Pressure  
Sea Level Pressure 30.05 in    
Wind  
Wind Speed 9 mph (WSW)    
Max Wind Speed 15 mph    
Max Gust Speed 22 mph    
Visibility 10 miles    
Events      
T = Trace of Precipitation, MM = Missing Value Source: NWS Daily Summary

Daily Weather History Graph

Daily Weather History Graph

Search for Another Location

Airport or City:

Trip Planner

Search our weather history database for the weather conditions in past years. The results will help you decide how hot, cold, wet, or windy it might be!

Date:

Astronomy

May. 30, 2013 Rise Set
Actual Time 5:51 AM PDT 8:19 PM PDT
Civil Twilight 5:21 AM PDT 8:49 PM PDT
Nautical Twilight 4:44 AM PDT 9:26 PM PDT
Astronomical Twilight 4:03 AM PDT 10:07 PM PDT
Moon 12:29 AM PDT (5/30) 11:58 AM PDT (5/30)
Length of Visible Light 15h 28m
Length of Day
14h 28m
Waning Gibbous, 61% of the Moon is Illuminated
May 30
Waning Gibbous
May 31
Last Quarter
Jun 8
New
Jun 16
First Quarter
Jun 23
Full

Hourly Weather History & Observations

Time (PDT) Temp. Dew Point Humidity Pressure Visibility Wind Dir Wind Speed Gust Speed Precip Events Conditions
12:54 AM 52.0 °F 46.0 °F 80% 30.03 in 10.0 mi SSW 5.8 mph - N/A   Clear
1:54 AM 51.1 °F 46.0 °F 83% 30.03 in 10.0 mi SSW 8.1 mph - N/A   Clear
2:54 AM 51.1 °F 46.9 °F 86% 30.02 in 10.0 mi SW 3.5 mph - N/A   Partly Cloudy
3:10 AM 51.8 °F 46.4 °F 82% 29.98 in 10.0 mi WSW 6.9 mph - N/A   Mostly Cloudy
3:54 AM 51.1 °F 46.9 °F 86% 30.03 in 10.0 mi SW 9.2 mph - N/A   Overcast
4:54 AM 51.1 °F 48.0 °F 89% 30.03 in 10.0 mi South 6.9 mph - N/A   Overcast
5:54 AM 51.1 °F 48.0 °F 89% 30.04 in 10.0 mi SSW 6.9 mph - N/A   Overcast
6:54 AM 52.0 °F 48.0 °F 86% 30.05 in 9.0 mi SW 5.8 mph - N/A   Overcast
7:54 AM 53.1 °F 48.0 °F 83% 30.05 in 10.0 mi SSW 6.9 mph - N/A   Overcast
8:14 AM 53.6 °F 48.2 °F 82% 30.02 in 10.0 mi SW 6.9 mph - N/A   Scattered Clouds
8:54 AM 57.0 °F 46.9 °F 69% 30.06 in 10.0 mi West 6.9 mph - N/A   Clear
9:54 AM 57.0 °F 46.9 °F 69% 30.06 in 10.0 mi WSW 8.1 mph - N/A   Partly Cloudy
10:54 AM 57.9 °F 48.0 °F 70% 30.07 in 10.0 mi West 10.4 mph - N/A   Clear
11:54 AM 59.0 °F 48.0 °F 67% 30.08 in 10.0 mi WNW 12.7 mph - N/A   Clear
12:54 PM 59.0 °F 46.9 °F 64% 30.07 in 10.0 mi WNW 12.7 mph - N/A   Clear
1:54 PM 60.1 °F 46.9 °F 62% 30.07 in 10.0 mi West 12.7 mph - N/A   Clear
2:54 PM 61.0 °F 46.0 °F 58% 30.07 in 10.0 mi West 15.0 mph - N/A   Clear
3:54 PM 60.1 °F 46.9 °F 62% 30.07 in 10.0 mi West 11.5 mph 18.4 mph N/A   Clear
4:54 PM 60.1 °F 46.0 °F 60% 30.06 in 10.0 mi West 11.5 mph - N/A   Clear
5:54 PM 59.0 °F 45.0 °F 60% 30.06 in 10.0 mi SW 11.5 mph - N/A   Clear
6:54 PM 57.9 °F 46.0 °F 65% 30.05 in 10.0 mi WSW 10.4 mph - N/A   Clear
7:54 PM 55.9 °F 46.0 °F 69% 30.06 in 10.0 mi SW 9.2 mph - N/A   Clear
8:54 PM 55.0 °F 45.0 °F 69% 30.06 in 10.0 mi WSW 9.2 mph - N/A   Clear
9:54 PM 54.0 °F 45.0 °F 72% 30.08 in 10.0 mi SW 5.8 mph - N/A   Clear
10:54 PM 53.1 °F 44.1 °F 71% 30.08 in 10.0 mi SSW 5.8 mph - N/A   Clear
11:54 PM 52.0 °F 44.1 °F 74% 30.07 in 10.0 mi SSW 6.9 mph - N/A   Clear